Regional Weather Roundup
Issued by NWS

Home | Current Version | Previous Version | Text Only | Print | Product List | Glossary On
Versions: 1 2 3 4 5 6 7 8 9 10 11 12 13 14 15 16 17 18 19 20 21 22 23 24 25 26 27 28 29 30 31 32 33 34 35 36 37 38 39 40 41 42 43 44 45 46 47 48 49 50
000
ASUS44 KJAN 221010
RWRMS

MISSISSIPPI HOURLY WEATHER ROUNDUP
NATIONAL WEATHER SERVICE JACKSON MS
400 AM CST SAT NOV 22 2014

NOTE: "FAIR: INDICATES FEW OR NO CLOUDS BELOW 12,000 FEET WITH NO
SIGNIFICANT WEATHER AND/OR OBSTRUCTIONS TO VISIBILITY.

MSZ001>002-007>008-010>013-018>021-025>028-034>036-221100-
NORTHWEST MISSISSIPPI

CITY           SKY/WX    TMP DP  RH WIND       PRES   REMARKS
CLARKSDALE     CLOUDY    54  48  82 SE8       30.27F
CLEVELAND      CLOUDY    55  49  81 SE7       30.27S
GREENWOOD      CLOUDY    54  45  71 S6        30.29F
GREENVILLE     CLOUDY    55  47  74 SE9       30.26F
GRENADA        PTSUNNY   50  45  81 CALM      30.30F
OLIVE BRANCH   MOCLDY    52  50  93 S8        30.27F
OXFORD         FAIR      50  43  76 SE8       30.31S
TUNICA         PTSUNNY   50  46  87 SE9       30.27F
$$

MSZ003>006-009-014>017-022>024-029>033-037>039-221100-
NORTHEAST MISSISSIPPI

CITY           SKY/WX    TMP DP  RH WIND       PRES   REMARKS
COLUMBUS AFB   CLEAR     41  39  93 CALM      30.33S FOG
CORINTH        FAIR      50  39  66 S6        30.31S
GOLDN TRIANGLE CLEAR     45  39  81 E3        30.32S
STARKVILLE       N/A     46  43  87 SE6       30.31F
TUPELO         PTCLDY    49  40  71 S3        30.32S
$$

MSZ040-058-221100-
CENTRAL MISSISSIPPI

CITY           SKY/WX    TMP DP  RH WIND       PRES   REMARKS
JACKSON INTL   MOCLDY    51  45  79 CALM      30.27F
JACKSON HAWKNS PTCLDY    52  44  74 NE3       30.27F
MERIDIAN KEY   CLEAR     40  39  97 NW3       30.31S
MERIDIAN NAS   CLEAR     41  38  89 CALM      30.32S
RAYMOND        FAIR      48  45  87 CALM      30.26F
VICKSBURG      CLOUDY    54  47  77 NE3       30.26F
$$

MSZ059>079-221100-
SOUTH MISSISSIPPI

CITY           SKY/WX    TMP DP  RH WIND       PRES   REMARKS
BROOKHAVEN     CLOUDY    54  46  76 CALM      30.25F
HATTIESBURG    CLEAR     40  38  93 CALM      30.28F
MCCOMB         CLOUDY    52  45  77 SE7       30.24S
NATCHEZ        CLOUDY    54  48  82 E3        30.24F
PINE BELT      CLEAR     45  39  81 CALM      30.28S
$$

MSZ080>082-221100-
COASTAL MISSISSIPPI

CITY           SKY/WX    TMP DP  RH WIND       PRES   REMARKS
BILOXI         CLEAR     51  45  79 E8        30.24F
PASCAGOULA     CLEAR     44  41  89 NE3       30.26F
GULFPORT       CLEAR     52  45  77 E8        30.24S
$$


USA.gov is the U.S. government's official web portal to all federal, state and local government web resources and services.